Yangiqurgan

Uzbekistan     41˚11′14″N   71˚43′39″E
temp.,
°C
wind,
m/s
gust,
m/s
humid.,
%
clouds,
%
prec.,
mm/h
press.,
hPa
HPBL,
m
29 november, sun
sun2923:00−2˚nne339066 0.1 104443
02:00−3˚n338827 0.1 104330
05:00−4˚n337814 0.1 104329
08:00−2˚n22610 0.0 104246
11:00+2˚n22490 0.0 1040506
14:00+4˚se12450 0.0 1038877
17:00−1˚wnw11700 0.0 103922
20:00−1˚n23530 0.0 103831
30 november, mon
mon3023:00−1˚n22470 0.0 103825
02:00−2˚n12440 0.0 103624
05:00−2˚nne12430 0.0 103624
08:00−1˚n22380 0.0 103530
11:00+4˚ese112926 0.0 1034294
14:00+4˚s113697 0.0 1030232
17:00n115298 0.0 103022
20:00nne1144100 0.0 102922
1 december, tue
tue123:00ne0148100 0.0 102822
02:00nne114594 0.0 102822
05:00+1˚nne113997 0.1 102722
08:00+1˚sw1138100 0.0 102822
11:00+4˚sse2136100 0.2 1029172
14:00+3˚ese224780 0.0 1029274
17:00+1˚n225650 0.0 103024
20:00+1˚n334343 0.0 103132
2 december, wed
wed223:00+2˚n343721 0.0 103140
02:00+1˚n333845 0.0 103031
05:00+1˚nne224473 0.0 103023
08:00+2˚nne1248100 0.0 103022
11:00+7˚ene0140100 0.0 1028151
14:00+8˚ssw114386 0.0 1026222
17:00+4˚wsw116093 0.0 102722
20:00+4˚n1159100 0.0 102722
3 december, thu
thu323:00+3˚ne1160100 0.0 102722
02:00+2˚ne226589 0.0 102722
05:00+3˚n335694 0.0 102725
08:00+3˚n3356100 0.0 102626
11:00+8˚nne344694 0.0 1025230
14:00+10˚ese1249100 0.0 1023358
17:00+6˚e1166100 0.0 102423
20:00+5˚nw0180100 0.3 102433